Weather Roundup
Issued by NWS Corpus Christi, TX

Home | Current Version | Previous Version | Text Only | Print | Product List | Glossary On
Versions: 1 2 3 4 5 6 7 8 9 10 11 12 13 14 15 16 17 18 19 20 21 22 23 24 25 26 27 28 29 30 31 32 33 34 35 36 37 38 39 40 41 42 43 44 45 46 47 48 49 50
000
ASUS44 KCRP 292010
HRRCRP

SOUTH TEXAS REGIONAL WEATHER ROUNDUP
NATIONAL WEATHER SERVICE CORPUS CHRISTI TX
300 PM CDT MON AUG 29 2016


TXZ229>244-292100-
...CORPUS CHRISTI AREA OBSERVATIONS...

CITY           SKY/WX    TMP DP  RH WIND       PRES   REMARKS
CORPUS CHRISTI LGT RAIN  89  74  60 NE16      29.89F HX  98
NAS CORPUS CHR PTSUNNY   86  81  85 NE13      29.89F HX 102
ROCKPORT       NOT AVBL
KINGSVILLE NAS PTSUNNY   91  75  59 N12       29.88F HX 101
ALICE          MOSUNNY   90  74  59 N12       29.89F HX  99
FALFURRIAS     MOSUNNY   91  71  51 N13       29.88F HX  96
$$

...VICTORIA AREA OBSERVATIONS...

CITY           SKY/WX    TMP DP  RH WIND       PRES   REMARKS
VICTORIA       PTSUNNY   84  74  71 NE14      29.91F HX  91
BEEVILLE       PTSUNNY   82  78  87 N7        29.92F HX  90
PLEASANTON     SUNNY     87  71  58 NE13G20   29.96F HX  92
SAN ANTONIO    PTSUNNY   85  71  63 NE15      29.98F HX  90
$$

...LAREDO AREA OBSERVATIONS...

CITY           SKY/WX    TMP DP  RH WIND       PRES   REMARKS
LAREDO         MOSUNNY   92  70  48 N10G20    29.92F HX  97
COTULLA        PTSUNNY   85  74  69 NE12      29.94F HX  92
DEL RIO        CLOUDY    82  73  74 NW10      29.97F
MCALLEN        MOSUNNY   98  69  38 N14       29.86F HX 104
HEBBRONVILLE   MOSUNNY   90  67  47 NE8       29.93F HX  93
$$

...OTHER TEXAS OBSERVATIONS...

CITY           SKY/WX    TMP DP  RH WIND       PRES   REMARKS
BROWNSVILLE    PTSUNNY   92  72  51 NE17G24   29.85F HX  99
HOUSTON        CLOUDY    76  73  91 E6        29.96F
COL. STATION   PTSUNNY   87  72  60 E10       29.95F HX  93
AUSTIN         PTSUNNY   90  72  55 NE16G23   29.95F HX  97
WACO           MOSUNNY   91  72  53 E12       29.99F HX  98
FORT WORTH     CLOUDY    80  73  79 SW14      30.03S THUNDER
WICHITA FALLS  MOSUNNY   91  65  41 E10       30.05F HX  93
LUBBOCK        HVY RAIN  71  68  90 SE9       30.18R
EL PASO        MOSUNNY   83  59  44 VRB3      30.12F
$$

...MARINE OBSERVATIONS...

STATION/POSITION TIME  SKY/WX   TEMP    WIND        PRES    VSBY  WAVE   SWELL
                                AIR SEA DIR/SP/G                  HT/PER HT/PER
                 (UTC)          (F)     (DEG/KT/KT) (MB)    (MI)  (FT/S) (FT/S)
PORT ARANSAS     1900            82 87   30/ 12/ 14 1012.8F
BUOY 90 E PORT A 1950            83 85   50/ 16/ 17 1011.8F         4/ 6
BUOY 45 SE BAFFI 1950            83 86   10/ 12/ 14 1011.1F         2/ 5
BUOY 200 E PT IS 1950            85 88   40/  6/  6 1010.3F         2/ 7   2/ 7
BUOY 15 E GALVES 1950            79 85  120/ 14/ 17 1013.7F         4/ 6   2/15
$$




USA.gov is the U.S. government's official web portal to all federal, state and local government web resources and services.